Location: Marion Hill
(40.7303°N, 80.2959°W)
Time: 09:06:31
(UTC+00:00)

H-2A R/B - Pass Details

Date: 29 October 2020
Orbit: 733 x 837 km, 98.2° (Epoch: 26 November)

Event Time Altitude Azimuth Distance (km) Brightness Sun altitude
Rises 22:58:34 0° 120° (ESE) 3,361 4.9 -7.8°
Reaches altitude 10° 23:01:39 10° 102° (ESE) 2,442 4.0 -8.4°
Maximum altitude 23:05:07 18° 62° (ENE) 1,972 3.5 -9.0°
Drops below altitude 10° 23:08:35 10° 22° (NNE) 2,458 4.3 -9.7°
Sets 23:11:42 0° 4° (N) 3,394 5.2 -10.3°
